Tracking 30922 objects as of 2-Jul-2025
HD Live streaming from Space Station
objects crossing your sky now

COSMOS 1579 COOLANT

Track COSMOS 1579 COOLANT now!
10-day predictions


NORAD ID: 26520
Int'l Code: 1984-069M
Perigee: 906.2 km
Apogee: 959.1 km
Inclination: 65.0 °
Period: 103.5 minutes
Semi major axis: 7303 km
RCS: 0.0068 m2 (small)
Launch date: June 29, 1984
Source: Commonwealth of Independent States (former USSR) (CIS)
Launch site: TYURATAM MISSILE AND SPACE COMPLEX (TTMTR)

Note: This is SATELLITE DEBRIS
Your satellite tracking list
Your tracking list is empty




NASA's NSSDC Master Catalog

Two Line Element Set (TLE):
1 26520U 84069M   25177.60366353  .00000045  00000-0  10732-3 0  9991
2 26520  65.0472 121.8992 0036250 159.6234  18.5157 13.90884208284159
Source of the keplerian elements: AFSPC